Find Starlink 5169

NORAD ID: 54060 Int'l Des: 2022-136 Owner: SPXS Country: US Constellation: starlink operational
LEOCIRCULAR

Live Position

Loading 3D Globe...

About Starlink 5169

Description loading...

Upcoming Passes

Passes for default location (London). Set your location on the main map for personalized predictions.

Altitude History

Loading altitude history...

Two-Line Element Set

1 54060U 22136K 26125.08724816 .00000039 00000-0 20542-4 0 9990
2 54060 53.2187 60.5993 0001852 92.0092 268.1112 15.08837393195781
Epoch: May 5, 2026 • Age: 10 hours

Current Status

Altitude 542.4 km
Velocity 7.60 km/s
Sub-Earth Point 40.85°N, 152.52°E
Launch Date Oct 20, 2022
Age 3.5 years
Type internet

Technical Details

Classification Payload
Mass 305.00 kg
Dry Mass 290.00 kg
Total Mass 305.00 kg
Length 0.20 m
Diameter 2.80 m
Span 9.00 m
Shape Box + pan
Manufacturer SPXS
Bus Type Starlink
Phase Status In Orbit
Owner/State SPXS/US

Most Searched